Torna al catalogo

COSMOS 2251 DEB

AttivoLEO
NORAD 33791·DEBRIS·🇷🇺 Russia

Lanciato Jun 16, 1993 da Plesetsk Cosmodrome

Loading…

Prossimi Passaggi (prossime 24 ore)

TLE

AggiornatoSource: Space-Track

Epoca: Sep 13, 2026, 23:00 UTC

1 33791U 93036AG  26256.95863350  .00001703  00000-0  50063-3 0  9992
2 33791  74.1709 250.2029 0028569 357.4117  24.3944 14.44250039920246

Traccia COSMOS 2251 DEB in tempo reale con AllMySat

Download on the App Store